Weather History for Cleveland, OH

Change the Weather History Date:

Sunday, October 23, 2011

  Actual Average Record
Temperature  
Mean Temperature 51 °F 52 °F  
Max Temperature 64 °F 60 °F 80 °F (1963)
Min Temperature 37 °F 43 °F 25 °F (1969)
Degree Days  
Heating Degree Days 14 14  
Month to date heating degree days 200 238  
Since 1 July heating degree days 276 341  
Cooling Degree Days 0 0  
Month to date cooling degree days 4 10  
Year to date cooling degree days 995 814  
Moisture  
Dew Point 39 °F    
Average Humidity 68    
Maximum Humidity 92    
Minimum Humidity 43    
Precipitation  
Precipitation 0.00 in 0.09 in 1.30 in (2007)
Month to date precipitation 4.90 2.29  
Year to date precipitation 54.87 31.64  
Snow  
Snow 0.00 in 0.00 in - ()
Month to date snowfall 0.0 0.1  
Since 1 July snowfall 0.0 0.1  
Since 1 September snowfall 0.0 0.1  
Snow Depth 0.00 in    
Sea Level Pressure  
Sea Level Pressure 30.06 in    
Wind  
Wind Speed 6 mph (SSW)    
Max Wind Speed 16 mph    
Max Gust Speed 20 mph    
Visibility 10 miles    
Events      
T = Trace of Precipitation, MM = Missing Value Source: NWS Daily Summary

Daily Weather History Graph

Daily Weather History Graph

Search for Another Location

Airport:

Trip Planner

Search our weather history database for the weather conditions in past years. The results will help you decide how hot, cold, wet, or windy it might be!

Date:

Astronomy

Oct. 23, 2011 Rise Set
Actual Time 7:48 AM EDT 6:34 PM EDT
Civil Twilight 7:19 AM EDT 7:03 PM EDT
Nautical Twilight 6:47 AM EDT 7:35 PM EDT
Astronomical Twilight 6:15 AM EDT 8:07 PM EDT
Moon 3:51 AM EDT (10/23) 4:26 PM EDT (10/23)
Length of Visible Light 11h 43m
Length of Day
10h 46m
Waning Crescent, 14% of the Moon is Illuminated
Oct 23
Waning Crescent
Oct 26
New
Nov 2
First Quarter
Nov 10
Full
Nov 18
Last Quarter

Hourly Weather History & Observations

Time (EDT) Temp. Windchill Dew Point Humidity Pressure Visibility Wind Dir Wind Speed Gust Speed Precip Events Conditions
12:51 AM 44.1 °F 42.5 °F 37.9 °F 79% 30.11 in 10.0 mi South 3.5 mph - N/A   Mostly Cloudy
1:51 AM 42.1 °F 40.2 °F 37.0 °F 82% 30.11 in 10.0 mi South 3.5 mph - N/A   Scattered Clouds
2:51 AM 43.0 °F 41.3 °F 37.0 °F 80% 30.09 in 10.0 mi South 3.5 mph - N/A   Partly Cloudy
3:51 AM 41.0 °F - 36.0 °F 82% 30.08 in 10.0 mi Calm Calm - N/A   Clear
4:51 AM 39.0 °F 36.8 °F 35.1 °F 86% 30.08 in 10.0 mi South 3.5 mph - N/A   Clear
5:51 AM 37.9 °F - 35.1 °F 89% 30.10 in 10.0 mi Calm Calm - N/A   Clear
6:51 AM 41.0 °F 39.0 °F 36.0 °F 82% 30.10 in 10.0 mi South 3.5 mph - N/A   Clear
7:51 AM 39.9 °F 37.8 °F 35.1 °F 83% 30.10 in 10.0 mi South 3.5 mph - N/A   Partly Cloudy
8:51 AM 42.1 °F 40.2 °F 37.0 °F 82% 30.12 in 10.0 mi South 3.5 mph - N/A   Scattered Clouds
9:51 AM 48.0 °F - 39.0 °F 71% 30.12 in 10.0 mi SSW 5.8 mph - N/A   Scattered Clouds
10:51 AM 53.1 °F - 39.0 °F 59% 30.11 in 10.0 mi SSW 5.8 mph - N/A   Mostly Cloudy
11:51 AM 57.0 °F - 41.0 °F 55% 30.10 in 10.0 mi SSW 8.1 mph - N/A   Mostly Cloudy
12:51 PM 61.0 °F - 39.9 °F 46% 30.08 in 10.0 mi SSW 5.8 mph - N/A   Mostly Cloudy
1:51 PM 63.0 °F - 41.0 °F 45% 30.05 in 10.0 mi SW 8.1 mph - N/A   Scattered Clouds
2:51 PM 64.0 °F - 41.0 °F 43% 30.03 in 10.0 mi South 8.1 mph - N/A   Scattered Clouds
3:51 PM 64.0 °F - 42.1 °F 45% 30.02 in 10.0 mi SSW 9.2 mph - N/A   Partly Cloudy
4:51 PM 63.0 °F - 39.9 °F 43% 30.01 in 10.0 mi SSW 9.2 mph - N/A   Partly Cloudy
5:51 PM 61.0 °F - 39.9 °F 46% 30.01 in 10.0 mi South 9.2 mph - N/A   Mostly Cloudy
6:51 PM 57.9 °F - 39.0 °F 49% 30.01 in 10.0 mi South 8.1 mph - N/A   Partly Cloudy
7:51 PM 57.2 °F - 39.2 °F 51% 30.02 in 10.0 mi South 6.9 mph - N/A   Overcast
8:51 PM 55.9 °F - 39.0 °F 53% 30.04 in 10.0 mi South 8.1 mph - N/A   Mostly Cloudy
9:51 PM 55.0 °F - 39.9 °F 57% 30.04 in 10.0 mi South 9.2 mph - N/A   Scattered Clouds
10:51 PM 54.0 °F - 39.0 °F 57% 30.02 in 10.0 mi South 11.5 mph - N/A   Scattered Clouds
11:51 PM 54.0 °F - 39.0 °F 57% 30.01 in 10.0 mi South 10.4 mph - N/A   Scattered Clouds